Location: Warszawa
(52.2500°N, 21.0000°E)
Time: 20:49:19
(UTC+02:00)

AO-91 - Pass Details

Date: 28 April 2024
Orbit: 441 x 737 km, 97.6° (Epoch: 20 May)

Event Time Altitude Azimuth Distance (km) Brightness Sun altitude
Rises 23:03:09 0° 7° (N) 2,451 ? -20.4°
Reaches altitude 10° 23:05:14 10° 359° (N) 1,584 ? -20.6°
Maximum altitude 23:08:21 36° 291° (WNW) 739 ? -20.7°
Enters shadow 23:09:38 26° 246° (WSW) 944 ? -20.8°
